| time (UTC) | temp F | wind direction | speed MPH | gust MPH | rain 1hr in | rain 24hr in | rain mn in | humidity % | barometer mb |
| 20260504174500 | 81 | 166 | 3.0 | 6.0 | 0.00 | 0.00 | 0.00 | 66 | 1012.3 |
| 20260504174000 | 80 | 167 | 3.0 | 7.0 | 0.00 | 0.00 | 0.00 | 67 | 1012.2 |
| 20260504173500 | 81 | 184 | 3.0 | 8.0 | 0.00 | 0.00 | 0.00 | 64 | 1012.5 |
| 20260504173000 | 82 | 209 | 2.0 | 4.0 | 0.00 | 0.00 | 0.00 | 64 | 1012.7 |
| 20260504172500 | 81 | 207 | 3.0 | 5.0 | 0.00 | 0.00 | 0.00 | 66 | 1012.6 |
| 20260504172000 | 81 | 148 | 3.0 | 8.0 | 0.00 | 0.00 | 0.00 | 66 | 1012.7 |
| 20260504171500 | 81 | 148 | 3.0 | 6.0 | 0.00 | 0.00 | 0.00 | 64 | 1012.7 |
| 20260504171000 | 80 | 148 | 3.0 | 10.0 | 0.00 | 0.00 | 0.00 | 65 | 1012.8 |
| 20260504170500 | 81 | 149 | 3.0 | 5.0 | 0.00 | 0.00 | 0.00 | 67 | 1012.7 |
| 20260504151000 | 76 | 213 | 2.0 | 6.0 | 0.00 | 0.00 | 0.00 | 71 | 1013.4 |
| 20260504150500 | 76 | 161 | 3.0 | 6.0 | 0.00 | 0.00 | 0.00 | 72 | 1013.5 |
| 20260504141000 | 67 | 198 | 0.0 | 0.0 | 0.00 | 0.00 | 0.00 | 95 | 1013.4 |
| 20260504140500 | 66 | 198 | 0.0 | 0.0 | 0.00 | 0.00 | 0.00 | 96 | 1013.4 |
| 20260504130500 | 59 | 202 | 0.0 | 0.0 | 0.00 | 0.00 | 0.00 | 95 | 1013.6 |
| 20260504110500 | 56 | 202 | 0.0 | 0.0 | 0.00 | 0.00 | 0.00 | 89 | 1013.3 |
| 20260504100500 | 57 | 202 | 0.0 | 0.0 | 0.00 | 0.00 | 0.00 | 89 | 1013.1 |
| 20260504082000 | 58 | 202 | 0.0 | 0.0 | 0.00 | 0.00 | 0.00 | 87 | 1014.2 |
| 20260504081501 | 58 | 202 | 0.0 | 0.0 | 0.00 | 0.00 | 0.00 | 86 | 1013.9 |
| 20260504081000 | 58 | 202 | 0.0 | 0.0 | 0.00 | 0.00 | 0.00 | 86 | 1014.0 |
| 20260504080501 | 58 | 202 | 0.0 | 0.0 | 0.00 | 0.00 | 0.00 | 86 | 1014.2 |
| 20260504050501 | 59 | 202 | 0.0 | 0.0 | 0.00 | 0.00 | 0.00 | 82 | 1015.9 |
| 20260504050001 | 59 | 202 | 0.0 | 0.0 | 0.00 | 0.00 | 0.00 | 81 | 1015.9 |
| 20260504045501 | 59 | 202 | 0.0 | 0.0 | 0.00 | 0.00 | 0.00 | 81 | 1016.0 |
| 20260504045001 | 59 | 202 | 0.0 | 0.0 | 0.00 | 0.00 | 0.00 | 82 | 1016.0 |
| 20260504044501 | 59 | 202 | 0.0 | 0.0 | 0.00 | 0.00 | 0.00 | 81 | 1016.1 |
| 20260504044001 | 59 | 202 | 0.0 | 0.0 | 0.00 | 0.00 | 0.00 | 80 | 1016.1 |
| 20260504043501 | 59 | 202 | 0.0 | 0.0 | 0.00 | 0.00 | 0.00 | 80 | 1016.0 |
| 20260504043001 | 59 | 202 | 0.0 | 0.0 | 0.00 | 0.00 | 0.00 | 79 | 1016.1 |
| 20260504042501 | 60 | 202 | 0.0 | 0.0 | 0.00 | 0.00 | 0.00 | 79 | 1016.1 |
| 20260504042001 | 60 | 202 | 0.0 | 0.0 | 0.00 | 0.00 | 0.00 | 78 | 1015.9 |
| 20260504041501 | 60 | 202 | 0.0 | 0.0 | 0.00 | 0.00 | 0.00 | 79 | 1015.9 |
| 20260504041001 | 60 | 202 | 0.0 | 0.0 | 0.00 | 0.00 | 0.00 | 80 | 1015.9 |
| 20260504040501 | 60 | 202 | 0.0 | 0.0 | 0.00 | 0.00 | 0.00 | 80 | 1015.8 |
| 20260504040001 | 60 | 202 | 0.0 | 0.0 | 0.00 | 0.00 | 0.00 | 80 | 1015.9 |
| 20260504035501 | 61 | 202 | 0.0 | 0.0 | 0.00 | 0.00 | 0.00 | 79 | 1016.0 |
| 20260504035001 | 61 | 202 | 0.0 | 0.0 | 0.00 | 0.00 | 0.00 | 79 | 1016.0 |
| 20260504034501 | 61 | 202 | 0.0 | 0.0 | 0.00 | 0.00 | 0.00 | 78 | 1016.0 |
| 20260504034001 | 61 | 202 | 0.0 | 0.0 | 0.00 | 0.00 | 0.00 | 77 | 1016.1 |
| 20260504033501 | 61 | 202 | 0.0 | 0.0 | 0.00 | 0.00 | 0.00 | 77 | 1016.1 |
| 20260504033001 | 62 | 202 | 0.0 | 0.0 | 0.00 | 0.00 | 0.00 | 77 | 1016.1 |
| 20260504032501 | 62 | 202 | 0.0 | 0.0 | 0.00 | 0.00 | 0.00 | 76 | 1016.0 |
| 20260504032001 | 62 | 202 | 0.0 | 0.0 | 0.00 | 0.00 | 0.00 | 77 | 1016.2 |
| 20260504031501 | 62 | 202 | 0.0 | 0.0 | 0.00 | 0.00 | 0.00 | 76 | 1016.0 |
| 20260504031001 | 62 | 202 | 0.0 | 0.0 | 0.00 | 0.00 | 0.00 | 76 | 1016.0 |
| 20260504030501 | 62 | 202 | 0.0 | 0.0 | 0.00 | 0.00 | 0.00 | 76 | 1016.0 |
| 20260504030001 | 63 | 202 | 0.0 | 0.0 | 0.00 | 0.00 | 0.00 | 75 | 1015.9 |
| 20260504025501 | 63 | 202 | 0.0 | 0.0 | 0.00 | 0.00 | 0.00 | 74 | 1016.0 |
| 20260504025001 | 63 | 202 | 0.0 | 0.0 | 0.00 | 0.00 | 0.00 | 74 | 1015.9 |
| 20260504024502 | 63 | 202 | 0.0 | 0.0 | 0.00 | 0.00 | 0.00 | 74 | 1016.0 |
| 20260504024001 | 63 | 202 | 0.0 | 0.0 | 0.00 | 0.00 | 0.00 | 73 | 1015.9 |
| 20260504023501 | 63 | 202 | 0.0 | 0.0 | 0.00 | 0.00 | 0.00 | 73 | 1015.9 |
| 20260504023001 | 64 | 202 | 0.0 | 0.0 | 0.00 | 0.00 | 0.00 | 73 | 1015.9 |
| 20260504022501 | 64 | 202 | 0.0 | 0.0 | 0.00 | 0.00 | 0.00 | 73 | 1015.9 |
| 20260504022001 | 64 | 202 | 0.0 | 0.0 | 0.00 | 0.00 | 0.00 | 73 | 1015.9 |
| 20260504021501 | 64 | 202 | 0.0 | 0.0 | 0.00 | 0.00 | 0.00 | 74 | 1015.9 |
| 20260504021001 | 64 | 202 | 0.0 | 0.0 | 0.00 | 0.00 | 0.00 | 74 | 1015.9 |
| 20260504020501 | 65 | 202 | 0.0 | 0.0 | 0.00 | 0.00 | 0.00 | 74 | 1015.9 |
| 20260504020001 | 65 | 202 | 0.0 | 0.0 | 0.00 | 0.00 | 0.00 | 74 | 1015.9 |
| 20260504015501 | 65 | 202 | 0.0 | 0.0 | 0.00 | 0.00 | 0.00 | 73 | 1016.0 |
| 20260504015001 | 66 | 202 | 0.0 | 0.0 | 0.00 | 0.00 | 0.00 | 73 | 1015.9 |
| 20260504014501 | 66 | 202 | 0.0 | 0.0 | 0.00 | 0.00 | 0.00 | 72 | 1015.9 |
| 20260504014001 | 66 | 202 | 0.0 | 0.0 | 0.00 | 0.00 | 0.00 | 71 | 1015.9 |
| 20260504013501 | 66 | 202 | 0.0 | 0.0 | 0.00 | 0.00 | 0.00 | 71 | 1016.0 |
| 20260504013001 | 67 | 202 | 0.0 | 0.0 | 0.00 | 0.00 | 0.00 | 71 | 1016.0 |
| 20260504012501 | 67 | 202 | 0.0 | 0.0 | 0.00 | 0.00 | 0.00 | 71 | 1016.0 |
| 20260504012001 | 67 | 202 | 0.0 | 0.0 | 0.00 | 0.00 | 0.00 | 70 | 1015.7 |
| 20260504011501 | 68 | 202 | 0.0 | 0.0 | 0.00 | 0.00 | 0.00 | 69 | 1015.7 |
| 20260504011001 | 68 | 202 | 0.0 | 0.0 | 0.00 | 0.00 | 0.00 | 68 | 1015.7 |
| 20260504010501 | 69 | 202 | 0.0 | 0.0 | 0.00 | 0.00 | 0.00 | 67 | 1015.9 |
| 20260504010001 | 69 | 202 | 0.0 | 0.0 | 0.00 | 0.00 | 0.00 | 67 | 1015.9 |
| 20260504005501 | 69 | 202 | 0.0 | 0.0 | 0.00 | 0.00 | 0.00 | 66 | 1015.9 |
| 20260504005001 | 69 | 202 | 0.0 | 0.0 | 0.00 | 0.00 | 0.00 | 65 | 1015.8 |
| 20260504004501 | 70 | 202 | 0.0 | 0.0 | 0.00 | 0.00 | 0.00 | 63 | 1015.8 |
| 20260504004001 | 70 | 202 | 0.0 | 0.0 | 0.00 | 0.00 | 0.00 | 62 | 1015.8 |
| 20260504003501 | 71 | 202 | 0.0 | 0.0 | 0.00 | 0.00 | 0.00 | 60 | 1015.8 |
| 20260504003001 | 71 | 202 | 1.0 | 2.0 | 0.00 | 0.00 | 0.00 | 60 | 1015.6 |
| 20260504002501 | 72 | 202 | 1.0 | 2.0 | 0.00 | 0.00 | 0.00 | 58 | 1015.7 |
| 20260504002001 | 72 | 202 | 2.0 | 3.0 | 0.00 | 0.00 | 0.00 | 57 | 1015.6 |
| 20260504001501 | 72 | 202 | 1.0 | 3.0 | 0.00 | 0.00 | 0.00 | 56 | 1015.7 |
| 20260504001001 | 73 | 202 | 1.0 | 2.0 | 0.00 | 0.00 | 0.00 | 56 | 1015.7 |
| 20260504000501 | 73 | 202 | 2.0 | 3.0 | 0.00 | 0.00 | 0.00 | 55 | 1015.8 |
| 20260504000001 | 73 | 202 | 2.0 | 3.0 | 0.00 | 0.00 | 0.00 | 53 | 1015.8 |
| 20260503235501 | 74 | 202 | 2.0 | 4.0 | 0.00 | 0.00 | 0.00 | 53 | 1015.7 |
| 20260503235001 | 74 | 202 | 2.0 | 4.0 | 0.00 | 0.00 | 0.00 | 52 | 1015.8 |
| 20260503234501 | 74 | 202 | 1.0 | 4.0 | 0.00 | 0.00 | 0.00 | 52 | 1015.9 |
| 20260503234001 | 74 | 203 | 2.0 | 3.0 | 0.00 | 0.00 | 0.00 | 52 | 1016.0 |
| 20260503233501 | 74 | 203 | 2.0 | 4.0 | 0.00 | 0.00 | 0.00 | 52 | 1016.1 |
| 20260503233001 | 74 | 203 | 2.0 | 4.0 | 0.00 | 0.00 | 0.00 | 51 | 1016.0 |
| 20260503232501 | 75 | 204 | 3.0 | 4.0 | 0.00 | 0.00 | 0.00 | 50 | 1016.0 |
| 20260503232001 | 75 | 205 | 2.0 | 4.0 | 0.00 | 0.00 | 0.00 | 50 | 1016.0 |
| 20260503231501 | 75 | 205 | 2.0 | 4.0 | 0.00 | 0.00 | 0.00 | 50 | 1016.1 |
| 20260503231001 | 75 | 205 | 2.0 | 4.0 | 0.00 | 0.00 | 0.00 | 49 | 1016.2 |
| 20260503230501 | 76 | 205 | 2.0 | 5.0 | 0.00 | 0.00 | 0.00 | 49 | 1016.2 |
| 20260503230001 | 76 | 206 | 2.0 | 5.0 | 0.00 | 0.00 | 0.00 | 50 | 1016.3 |
| 20260503225501 | 76 | 121 | 2.0 | 5.0 | 0.00 | 0.00 | 0.00 | 51 | 1016.3 |
| 20260503225001 | 77 | 117 | 2.0 | 6.0 | 0.00 | 0.00 | 0.00 | 49 | 1016.2 |
| 20260503224501 | 77 | 116 | 2.0 | 6.0 | 0.00 | 0.00 | 0.00 | 49 | 1016.5 |
| 20260503224001 | 77 | 115 | 2.0 | 4.0 | 0.00 | 0.00 | 0.00 | 51 | 1016.5 |
| 20260503223501 | 77 | 115 | 2.0 | 3.0 | 0.00 | 0.00 | 0.00 | 51 | 1016.5 |
| 20260503223002 | 77 | 115 | 2.0 | 7.0 | 0.00 | 0.00 | 0.00 | 48 | 1016.6 |
| 20260503222501 | 78 | 115 | 2.0 | 3.0 | 0.00 | 0.00 | 0.00 | 47 | 1016.6 |
| 20260503222001 | 78 | 115 | 2.0 | 4.0 | 0.00 | 0.00 | 0.00 | 46 | 1016.5 |
| 20260503221502 | 78 | 115 | 2.0 | 4.0 | 0.00 | 0.00 | 0.00 | 47 | 1016.6 |
| 20260503221002 | 78 | 115 | 2.0 | 3.0 | 0.00 | 0.00 | 0.00 | 48 | 1016.6 |
| 20260503220502 | 78 | 115 | 2.0 | 4.0 | 0.00 | 0.00 | 0.00 | 47 | 1016.5 |
| 20260503220002 | 79 | 115 | 2.0 | 4.0 | 0.00 | 0.00 | 0.00 | 46 | 1016.5 |
| 20260503215502 | 79 | 115 | 2.0 | 4.0 | 0.00 | 0.00 | 0.00 | 47 | 1016.6 |
| 20260503215002 | 80 | 115 | 2.0 | 4.0 | 0.00 | 0.00 | 0.00 | 48 | 1016.7 |
| 20260503214502 | 80 | 114 | 2.0 | 7.0 | 0.00 | 0.00 | 0.00 | 46 | 1016.7 |
| 20260503214002 | 80 | 114 | 2.0 | 4.0 | 0.00 | 0.00 | 0.00 | 45 | 1016.7 |
| 20260503213502 | 81 | 114 | 2.0 | 4.0 | 0.00 | 0.00 | 0.00 | 45 | 1016.7 |
| 20260503213002 | 81 | 107 | 1.0 | 4.0 | 0.00 | 0.00 | 0.00 | 45 | 1016.9 |
| 20260503212502 | 82 | 105 | 2.0 | 6.0 | 0.00 | 0.00 | 0.00 | 44 | 1016.9 |
| 20260503212002 | 82 | 167 | 3.0 | 5.0 | 0.00 | 0.00 | 0.00 | 45 | 1017.1 |
| 20260503211502 | 82 | 167 | 2.0 | 5.0 | 0.00 | 0.00 | 0.00 | 42 | 1017.1 |
| 20260503211002 | 82 | 167 | 2.0 | 5.0 | 0.00 | 0.00 | 0.00 | 45 | 1017.1 |
| 20260503210502 | 82 | 80 | 2.0 | 3.0 | 0.00 | 0.00 | 0.00 | 42 | 1017.1 |
| 20260503210002 | 83 | 82 | 2.0 | 4.0 | 0.00 | 0.00 | 0.00 | 43 | 1017.3 |
| 20260503205502 | 83 | 82 | 2.0 | 4.0 | 0.00 | 0.00 | 0.00 | 44 | 1017.3 |
| 20260503205002 | 83 | 80 | 3.0 | 6.0 | 0.00 | 0.00 | 0.00 | 40 | 1017.2 |
| 20260503204502 | 83 | 107 | 2.0 | 7.0 | 0.00 | 0.00 | 0.00 | 39 | 1017.3 |
| 20260503204002 | 84 | 111 | 2.0 | 6.0 | 0.00 | 0.00 | 0.00 | 41 | 1017.4 |
| 20260503203502 | 84 | 111 | 2.0 | 4.0 | 0.00 | 0.00 | 0.00 | 42 | 1017.6 |
| 20260503203002 | 84 | 111 | 2.0 | 8.0 | 0.00 | 0.00 | 0.00 | 41 | 1017.7 |
| 20260503202502 | 84 | 44 | 0.0 | 5.0 | 0.00 | 0.00 | 0.00 | 43 | 1017.7 |
| 20260503202002 | 84 | 43 | 0.0 | 0.0 | 0.00 | 0.00 | 0.00 | 44 | 1017.8 |
| 20260503201502 | 83 | 42 | 1.0 | 3.0 | 0.00 | 0.00 | 0.00 | 39 | 1017.9 |
| 20260503201002 | 84 | 44 | 1.0 | 4.0 | 0.00 | 0.00 | 0.00 | 36 | 1017.9 |
| 20260503200502 | 83 | 58 | 1.0 | 3.0 | 0.00 | 0.00 | 0.00 | 41 | 1018.0 |
| 20260503200002 | 83 | 53 | 2.0 | 7.0 | 0.00 | 0.00 | 0.00 | 42 | 1018.0 |
| 20260503195502 | 83 | 36 | 2.0 | 5.0 | 0.00 | 0.00 | 0.00 | 37 | 1018.1 |
| 20260503195002 | 84 | 30 | 1.0 | 4.0 | 0.00 | 0.00 | 0.00 | 40 | 1018.0 |
| 20260503194502 | 84 | 28 | 1.0 | 4.0 | 0.00 | 0.00 | 0.00 | 41 | 1018.1 |
| 20260503194002 | 84 | 28 | 1.0 | 4.0 | 0.00 | 0.00 | 0.00 | 44 | 1018.1 |
| 20260503193502 | 84 | 28 | 1.0 | 3.0 | 0.00 | 0.00 | 0.00 | 41 | 1018.3 |
| 20260503193002 | 84 | 28 | 2.0 | 3.0 | 0.00 | 0.00 | 0.00 | 44 | 1018.5 |
| 20260503192502 | 83 | 28 | 2.0 | 4.0 | 0.00 | 0.00 | 0.00 | 40 | 1018.5 |
| 20260503192002 | 83 | 23 | 1.0 | 6.0 | 0.00 | 0.00 | 0.00 | 37 | 1018.6 |
| 20260503191502 | 84 | 64 | 1.0 | 4.0 | 0.00 | 0.00 | 0.00 | 41 | 1018.6 |
| 20260503191002 | 83 | 61 | 2.0 | 3.0 | 0.00 | 0.00 | 0.00 | 42 | 1018.7 |
| 20260503190502 | 83 | 61 | 1.0 | 3.0 | 0.00 | 0.00 | 0.00 | 47 | 1018.8 |
| 20260503190002 | 83 | 61 | 2.0 | 4.0 | 0.00 | 0.00 | 0.00 | 42 | 1018.8 |
| 20260503185502 | 83 | 107 | 1.0 | 3.0 | 0.00 | 0.00 | 0.00 | 41 | 1019.0 |
| 20260503185002 | 83 | 107 | 2.0 | 3.0 | 0.00 | 0.00 | 0.00 | 40 | 1019.0 |
| 20260503184502 | 83 | 107 | 2.0 | 7.0 | 0.00 | 0.00 | 0.00 | 37 | 1019.1 |
| 20260503184002 | 84 | 38 | 2.0 | 4.0 | 0.00 | 0.00 | 0.00 | 41 | 1019.1 |
| 20260503183502 | 83 | 36 | 2.0 | 3.0 | 0.00 | 0.00 | 0.00 | 41 | 1019.3 |
| 20260503183002 | 83 | 36 | 2.0 | 3.0 | 0.00 | 0.00 | 0.00 | 41 | 1019.4 |
| 20260503182502 | 83 | 36 | 2.0 | 5.0 | 0.00 | 0.00 | 0.00 | 37 | 1019.5 |
| 20260503182002 | 83 | 36 | 2.0 | 4.0 | 0.00 | 0.00 | 0.00 | 40 | 1019.5 |
| 20260503181503 | 83 | 36 | 2.0 | 5.0 | 0.00 | 0.00 | 0.00 | 37 | 1019.6 |
| 20260503181002 | 83 | 34 | 2.0 | 6.0 | 0.00 | 0.00 | 0.00 | 42 | 1019.6 |
| 20260503180502 | 83 | 34 | 2.0 | 4.0 | 0.00 | 0.00 | 0.00 | 36 | 1019.6 |
| 20260503180002 | 83 | 19 | 1.0 | 5.0 | 0.00 | 0.00 | 0.00 | 38 | 1019.7 |
| 20260503175502 | 83 | 29 | 2.0 | 5.0 | 0.00 | 0.00 | 0.00 | 39 | 1019.7 |
| 20260503175002 | 83 | 26 | 2.0 | 4.0 | 0.00 | 0.00 | 0.00 | 41 | 1019.9 |